Regional Weather Roundup
Issued by NWS

Home | Current Version | Previous Version | Text Only | Print | Product List | Glossary On
Versions: 1 2 3 4 5 6 7 8 9 10 11 12 13 14 15 16 17 18 19 20 21 22 23 24 25 26 27 28 29 30 31 32 33 34 35 36 37 38 39 40 41 42 43 44 45 46 47 48 49 50
000
ASUS46 KLOX 010713
RWRCA

SOUTHERN CALIFORNIA WEATHER ROUNDUP
NATIONAL WEATHER SERVICE OXNARD CALIFORNIA
1200 AM PDT SAT AUG 01 2015

NOTE: "FAIR" INDICATES FEW OR NO CLOUDS BELOW 12,000 FEET WITH NO
SIGNIFICANT WEATHER AND/OR OBSTRUCTIONS TO VISIBILITY.

  -  STATIONS PRECEEDED BY AN ASTERISK (*) ARE NOT NWS OR FAA
     STATIONS AND ARE NOT SUBJECT TO NWS AND FAA QUALITY CONTROL.

CAZ041-042-087-010800-
LA AND ORANGE COUNTY COASTAL AREAS


CITY           SKY/WX    TMP DP  RH WIND       PRES   REMARKS
L.A. DOWNTOWN  CLOUDY    68  64  87 CALM      29.96S
L.A. AIRPORT   CLOUDY    67  65  93 W8        29.97S FOG
LONG BEACH     CLEAR     70  65  84 NW5       29.96S

CITY           SKY/WX    TMP DP  RH WIND       PRES   REMARKS
AVALON           N/A     64 N/A N/A MISG        N/A
FULLERTON      CLEAR     72  66  81 CALM      29.95S
*GETTY CENTER    N/A     64  61  88 S1          N/A
HAWTHORNE      CLOUDY    69  65  86 W6        29.97S
*LOS ALAMITOS  FAIR      68  66  93 W5        29.96S
*REDONDO BEACH   N/A     68  64  87 SW2       29.97S
SANTA ANA      CLEAR     70  66  87 S5        29.96S
STA MONICA APT CLOUDY    68  65  90 SW5       29.97S
*UCLA            N/A     68  63  83 W1        29.95R

$$

CAZ547-548-048-010800-
LA COUNTY VALLEYS AND INLAND EMPIRE


CITY           SKY/WX    TMP DP  RH WIND       PRES   REMARKS
BURBANK        CLEAR     72  65  78 S3        29.97S
VAN NUYS       CLEAR     74  63  68 S3        29.97S

CITY           SKY/WX    TMP DP  RH WIND       PRES   REMARKS
CORONA AIRPORT SUNNY     72  65  78 CALM      29.97S
CHINO          CLEAR     73  65  75 W7        29.98R
MARCH AFB      PTCLDY    73  63  71 W6        30.00R
*NORTHRIDGE      N/A     72  61  68 S2          N/A
ONTARIO        MOCLDY    74  63  68 W6        29.97S
*PASADENA        N/A     72  66  83 CALM        N/A
RIVERSIDE      CLEAR     75  64  68 W5        29.97S
SAN BERNARDINO NOT AVBL
*WHITEMAN AP   NOT AVBL
*WOODLAND HILL   N/A     73  63  68 SW2         N/A

$$

CAZ054-055-010800-
LA AND SAN BERNARDINO COUNTY MOUNTAINS


CITY           SKY/WX    TMP DP  RH WIND       PRES   REMARKS
*BIG BEAR AIRP MOSUNNY   54  48  82 CALM      30.34S
SANDBERG       CLEAR     71  53  52 SW5       30.19S

$$

CAZ028-029-059-060-099-010800-
ANTELOPE VALLEY AND SURROUNDING AREAS


CITY           SKY/WX    TMP DP  RH WIND       PRES   REMARKS
LANCASTER      PTCLDY    81  38  21 W10       30.02S
PALMDALE       PTCLDY    80  47  31 SW8       30.03S

CITY           SKY/WX    TMP DP  RH WIND       PRES   REMARKS
29 PALMS       PTCLDY    87  52  29 N3        30.02S
BARSTOW/DAGGET PTCLDY    86  51  29 W15       29.96R HAZE
BISHOP         PTCLDY    73  47  39 NW5       30.11S
CHINA LAKE     MOCLDY    85  55  35 S10       29.96S
EDWARDS AFB    PTCLDY    82  44  25 SW12      29.98S
MOJAVE         CLEAR     84  55  37 W16       30.02F
NEEDLES        CLOUDY    97  60  29 CALM      29.87R HX  97
VICTORVILLE    PTCLDY    79  52  38 CALM      30.05S

$$

CAZ039-040-010800-
VENTURA AND SANTA BARBARA COUNTY COAST


CITY           SKY/WX    TMP DP  RH WIND       PRES   REMARKS
CAMARILLO      CLEAR     68  62  81 NW3       29.95F
OXNARD AIRPORT PTCLDY    67  64  90 W6        29.95F
*POINT MUGU    CLEAR     68  63  84 NW5       29.96S
SBA APT/GOLETA CLEAR     67  64  90 E3        29.95F
*SANTA BARBARA   N/A     69  62  79 CALM      30.03S
*VENTURA         N/A     67  62  85 CALM      29.56S

$$

CAZ044-045-010800-
VENTURA COUNTY VALLEYS


CITY           SKY/WX    TMP DP  RH WIND       PRES   REMARKS
*SIMI VALLEY     N/A     67  63  86 CALM      29.91S
*OJAI            N/A     65  60  86 CALM      29.89F
*FILLMORE        N/A     66  60  82 CALM      29.86F

$$

CAZ053-010800-
VENTURA COUNTY MOUNTAINS


CITY           SKY/WX    TMP DP  RH WIND       PRES   REMARKS

$$

CAZ034-035-036-010800-
CENTRAL COAST AND SANTA YNEZ VALLEY


CITY           SKY/WX    TMP DP  RH WIND       PRES   REMARKS
SAN LUIS OBISP CLOUDY    63  59  87 NW9       30.01R
SANTA MARIA    CLOUDY    64  61  90 CALM      30.01S

CITY           SKY/WX    TMP DP  RH WIND       PRES   REMARKS
*CAL POLY SLO    N/A    N/A N/A N/A W6          N/A
*LOMPOC        CLOUDY    63  55  77 NW6       30.01F
*PISMO BEACH     N/A     64  61  91 W1        30.01S
*SANTA YNEZ    FAIR      61  55  82 SW5       30.00S

$$

CAZ037-038-051-010800-
SAN LUIS OBISPO COUNTY INTERIOR AND CUYAMA VALLEY


CITY           SKY/WX    TMP DP  RH WIND       PRES   REMARKS
*CUYAMA          N/A     71  54  54 W3        29.90S
PASO ROBLES    CLEAR     68  54  60 MISG      30.00R

$$

CAZ032-033-061-010800-
SOUTHERN DESERTS


CITY           SKY/WX    TMP DP  RH WIND       PRES   REMARKS
BLYTHE         CLOUDY    92  65  40 SE9       29.84R HX  94
IMPERIAL       CLEAR     87  46  24 W8        29.79S
PALM SPRINGS   PTCLDY    91  59  33 CALM      29.86R HX  90
THERMAL        PTCLDY    94  58  29 NW13      29.78S HX  93

$$

ELSEWHERE ACROSS THE WESTERN UNITED STATES AND MEXICO


CITY           SKY/WX    TMP DP  RH WIND       PRES   REMARKS
DENVER, CO     PTCLDY    67  51  56 S10       30.24S
GRAND CANYON,  LGT RAIN  61  55  81 CALM      30.34F
HONOLULU, HI   PTCLDY    81  72  74 E14       29.98R
KAHULUI, MAUI  PTCLDY    81  70  69 NE13G22   29.99R
LAKE TAHOE, CA PTCLDY    56  44  64 CALM      30.30S
LAS VEGAS, NV  CLOUDY    93  53  25 S5        29.91F HX  90
MAMMOTH LAKES, FAIR      57  43  58 CALM      30.37S
MEXICO CITY, M MOCLDY    63  45  51 NW8       30.37F
PHOENIX, AZ    CLOUDY    81  71  71 S5        29.94R
PORTLAND, OR   CLEAR     76  48  37 NW5       29.95S
RENO, NV       MOCLDY    76  39  26 W8        30.14S
SALT LAKE CITY PTCLDY    69  40  34 CALM      30.13R
SAN DIEGO, CA  MOCLDY    70  63  78 W3        29.99S
SAN FRANCISCO, PTCLDY    63  57  81 SW9       30.00S
SAN JOSE, CA   PTCLDY    64  58  80 NW3       30.00S
SEATTLE, WA    CLEAR     74  41  30 N5        30.00S
TIJUANA, MEX   MOCLDY    66  61  82 W3        30.01S

$$

STATION/POSITION TIME  TEMP    WIND        PRES    VSBY  WAVE
                       AIR SEA DIR/SP/G                  HT/PER
                 (UTC) (F)     (DEG/KT/KT) (MB)    (MI)  (FT/S)
POINT ARGUELLO B NOT AVBL
WEST SANTA BARBA 0650   63 65  320/ 21/ 25 1013.7F         4/15
POINT CONCEPTION NOT AVBL
EAST SANTA BARBA 0700   66 69  250/  6/  8 1014.6F
SANTA MONICA BAY 0650   68 74  260/  4/  6 1014.3F         3/15


USA.gov is the U.S. government's official web portal to all federal, state and local government web resources and services.